[[{"header":{"parameterUnit":"m.s-1","parameterCategory":1,"la1":30.2991,"la2":30.254,"lo1":-89.0895,"lo2":-89.0444,"dy":0.0017,"dx":0.0017,"nx":28,"ny":28,"refTime":"2023-10-26T09:00:00:Z","depth":0,"parameterNumber":2,"parameterNumberName":"U-component_of_WINDS"},"data":[0,0,0,0,0,0,0,0,0,0,0,0,0,0,0,0,0,0,0,0,0,0,0,0,0,0,0,0,0,0,0,0,0,0,0,0,0,0,0,0,0,0,0,0,0,0,0,0,0,0,0,0,0,0,0,0,0,0,-5.3564,-5.3566,0,-5.3735,-5.3737,-5.3739,-5.3738,-5.3735,-5.3733,-5.3731,-5.3903,-5.391,-5.3916,0,0,0,0,0,0,0,0,0,0,0,0,0,-5.3234,-5.3241,-5.3564,-5.3566,-5.3568,-5.3735,-5.3737,-5.374,-5.3738,-5.3735,-5.3733,-5.373,-5.3901,-5.3909,-5.3917,0,0,0,0,0,0,0,0,0,0,0,0,0,-5.3389,-5.3243,-5.3563,-5.3587,-5.3591,-5.3734,-5.3737,-5.374,-5.3739,-5.3735,-5.3732,-5.3729,-5.3899,-5.3908,-5.3918,-5.4048,0,0,-5.3949,-5.3953,0,0,0,0,0,0,0,0,-5.338,-5.3401,-5.3582,-5.3586,-5.3591,-5.3712,-5.3684,-5.3843,-5.3739,-5.3683,-5.3731,-5.3727,-5.3842,-5.3857,-5.3896,-5.4056,-5.4063,-5.395,-5.3956,-5.396,-5.3963,0,0,0,0,0,0,0,-5.3369,-5.3393,-5.3631,-5.3584,-5.359,-5.359,-5.3608,-5.3714,-5.3779,-5.3687,-5.3688,-5.3708,-5.3844,-5.3886,-5.39,-5.4066,-5.3949,-5.3958,-5.3964,-5.3968,-5.4342,-5.4345,0,0,0,0,0,0,-5.3354,-5.3384,-5.3626,-5.3637,-5.3475,-5.3598,-5.3619,-5.3676,-5.3778,-5.379,-5.3711,-5.3707,-5.3871,-5.3888,-5.3906,-5.4064,-5.396,-5.3969,-5.3975,-5.4338,-5.4343,-5.4347,0,0,0,0,0,0,-5.3347,-5.3375,-5.3619,-5.3511,-5.3542,-5.3607,-5.3672,-5.3681,-5.3724,-5.3796,-5.3807,-5.3742,-5.3869,-5.3892,-5.4013,-5.407,-5.3974,-5.3983,-5.4333,-5.4339,-5.4345,-5.4381,0,0,0,0,0,0,-5.3337,-5.3373,-5.3422,-5.3512,-5.3548,-5.3723,-5.3676,-5.3687,-5.3741,-5.3739,-5.3828,-5.384,-5.3868,-5.3998,-5.4023,-5.4082,-5.3991,-5.4328,-5.4336,-5.4343,-5.4375,-5.4387,-5.4398,0,0,0,0,0,-5.3326,-5.3425,-5.3425,-5.3454,-5.3611,-5.3726,-5.3747,-5.3778,-5.3746,-5.3796,-5.3843,-5.3837,-5.4061,-5.401,-5.4038,-5.4101,-5.4325,-5.4334,-5.4342,-5.437,-5.4385,-5.4398,0,0,0,0,0,0,-5.3338,-5.3437,-5.3438,-5.3569,-5.364,-5.3726,-5.379,-5.3793,-5.3873,-5.3866,-5.3901,-5.3922,-5.4042,-5.4085,-5.4027,-5.4233,-5.4189,-5.4204,-5.42,-5.4215,-5.4226,-5.4212,-5.3999,0,0,0,0,0,-5.3357,-5.3443,-5.3524,-5.3632,-5.3668,-5.3723,-5.3775,-5.3793,-5.3867,-5.3896,-5.3952,-5.4023,-5.411,-5.4165,-5.4249,-5.4383,-5.4402,-5.444,-5.4452,-5.4461,-5.4472,-5.4546,-5.4564,-5.4376,-5.4376,-5.4375,0,0,-5.3395,-5.3459,-5.3511,-5.3637,-5.3693,-5.3781,-5.3748,-5.3842,-5.3907,-5.391,-5.4027,-5.4072,-5.4154,-5.4282,-5.4341,-5.432,-5.4529,-5.4472,-5.4479,-5.4485,-5.4557,-5.4575,-5.4591,-5.4382,-5.4381,-5.438,0,0,-5.3508,-5.3567,-5.3663,-5.3721,-5.3809,-5.3846,-5.3869,-5.3956,-5.3986,-5.4105,-5.4109,-5.4188,-5.4336,-5.4395,-5.4444,-5.4585,-5.4582,-5.4612,-5.467,-5.4742,-5.4757,-5.477,-5.4819,-5.4836,-5.4623,-5.4624,-5.4624,0,-5.3543,-5.3676,-5.3712,-5.3807,-5.3862,-5.3872,-5.3969,-5.4024,-5.4134,-5.4172,-5.4148,-5.4336,-5.4392,-5.4534,-5.4569,-5.4609,-5.4636,-5.4599,-5.4752,-5.4766,-5.4779,-5.4825,-5.4844,-5.4626,-5.4626,-5.4626,-5.4625,0,-5.3715,-5.3808,-5.3875,-5.3982,-5.4046,-5.4142,-5.4192,-5.4252,-5.4267,-5.4306,-5.4428,-5.4497,-5.4595,-5.4631,-5.4645,-5.4776,-5.476,-5.4745,-5.47,-5.4799,-5.4843,-5.4862,-5.463,-5.4629,-5.4628,-5.4628,0,0,-5.3836,-5.3965,-5.3989,-5.4038,-5.4137,-5.4209,-5.4307,-5.4404,-5.4454,-5.4532,-5.4613,-5.4741,-5.4728,-5.4784,-5.4806,-5.487,-5.4976,-5.4846,-5.4849,-5.4866,-5.5123,-5.5132,-5.5152,-5.4977,-5.498,-5.4983,-5.5115,0,-5.3958,-5.413,-5.4167,-5.4316,-5.4402,-5.4416,-5.4501,-5.4571,-5.4612,-5.4691,-5.4736,-5.4825,-5.4802,-5.4836,-5.49,-5.4949,-5.5027,-5.4941,-5.5051,-5.5055,-5.5026,-5.5175,-5.5184,-5.5305,-5.5133,-5.5136,-5.5138,0,-5.4121,-5.4204,-5.4362,-5.4452,-5.4489,-5.4564,-5.4658,-5.4734,-5.4814,-5.484,-5.4905,-5.4921,-5.5023,-5.4978,-5.5119,-5.5059,-5.5108,-5.5139,-5.5145,-5.5153,-5.5099,-5.5185,-5.5345,-5.5362,-5.5167,-5.5164,-5.5162,0,-5.4191,-5.4342,-5.4456,-5.4498,-5.4606,-5.4659,-5.4707,-5.4784,-5.4841,-5.4924,-5.4961,-5.5054,-5.5104,-5.5176,-5.5217,-5.518,-5.5355,-5.5313,-5.5377,-5.5376,-5.5409,-5.5406,-5.5576,-5.5447,-5.5446,-5.5446,-5.5446,0,-5.432,-5.4416,-5.4489,-5.4558,-5.4666,-5.4709,-5.4815,-5.4862,-5.4932,-5.5011,-5.503,-5.5104,-5.5156,-5.5237,-5.5271,-5.5382,-5.5405,-5.5428,-5.5435,-5.5424,-5.5421,-5.5453,-5.5444,-5.5451,-5.545,-5.5449,-5.5448,0,-5.4414,-5.4467,-5.4592,-5.4685,-5.4711,-5.4787,-5.4867,-5.4935,-5.4979,-5.5079,-5.5105,-5.5173,-5.527,-5.532,-5.5441,-5.5464,-5.5588,-5.5592,-5.5561,-5.5563,-5.5624,-5.5616,-5.5818,-5.5846,-5.57,-5.5702,-5.5703,0,-5.4491,-5.4565,-5.4668,-5.4723,-5.4772,-5.4861,-5.492,-5.4966,-5.5027,-5.5127,-5.5183,-5.5282,-5.5363,-5.5518,-5.5578,-5.5671,-5.5675,-5.574,-5.5689,-5.5676,-5.5673,-5.5667,-5.5674,-5.5747,-5.5748,-5.5749,-5.575,0,-5.4622,-5.4646,-5.473,-5.4826,-5.4896,-5.4973,-5.5048,-5.5093,-5.5152,-5.5219,-5.532,-5.5383,-5.5508,-5.5606,-5.5704,-5.5753,-5.5761,-5.5767,-5.5786,-5.5774,-5.5752,-5.5763,-5.5582,-5.5761,-5.576,-5.5759,-5.5758,-5.5758,-5.4709,-5.4775,-5.4859,-5.4953,-5.5016,-5.5087,-5.5156,-5.521,-5.5294,-5.54,-5.5423,-5.5529,-5.5611,-5.5745,-5.5797,-5.5881,-5.5867,-5.5896,-5.5902,-5.5908,-5.5909,-5.5742,-5.59,-5.5899,-5.5899,-5.5899,-5.5899,0,-5.4839,-5.4894,-5.4981,-5.5087,-5.5162,-5.5167,-5.5252,-5.5313,-5.5407,-5.5483,-5.5563,-5.568,-5.5775,-5.5845,-5.5942,-5.5996,-5.6003,-5.602,-5.6015,-5.6026,-5.5917,-5.5889,-5.6013,-5.6013,-5.6013,-5.6013,-5.6013,-5.6013,-5.4915,-5.5028,-5.5062,-5.5207,-5.5262,-5.5366,-5.5415,-5.5481,-5.5542,-5.5671,-5.5751,-5.5797,-5.587,-5.5974,-5.6063,-5.6081,-5.6115,-5.6132,-5.6149,-5.6046,-5.6033,-5.6021,-5.5995,-5.6139,-5.614,-5.625,-5.6251,-5.6252]},{"header":{"parameterUnit":"m.s-1","parameterCategory":1,"la1":30.2991,"la2":30.254,"lo1":-89.0895,"lo2":-89.0444,"dy":0.0017,"dx":0.0017,"nx":28,"ny":28,"refTime":"2023-10-26T09:00:00:Z","depth":0,"parameterNumber":3,"parameterNumberName":"V-component_of_WINDS"},"data":[0,0,0,0,0,0,0,0,0,0,0,0,0,0,0,0,0,0,0,0,0,0,0,0,0,0,0,0,0,0,0,0,0,0,0,0,0,0,0,0,0,0,0,0,0,0,0,0,0,0,0,0,0,0,0,0,0,0,2.1172,2.1173,0,2.1258,2.1259,2.126,2.1289,2.1289,2.1289,2.1288,2.1373,2.1376,2.1378,0,0,0,0,0,0,0,0,0,0,0,0,0,2.103,2.1033,2.1172,2.1173,2.1174,2.1258,2.1259,2.1261,2.1289,2.1289,2.1289,2.1288,2.1372,2.1375,2.1378,0,0,0,0,0,0,0,0,0,0,0,0,0,2.1102,2.1034,2.1172,2.1199,2.1202,2.1258,2.1259,2.1261,2.1289,2.1289,2.1288,2.1288,2.1371,2.1375,2.1379,2.1413,0,0,2.1391,2.1392,0,0,0,0,0,0,0,0,2.1098,2.1107,2.1194,2.1197,2.1201,2.1263,2.1241,2.1312,2.129,2.1256,2.1288,2.1288,2.1336,2.1343,2.136,2.1417,2.1421,2.1391,2.1393,2.1395,2.1396,0,0,0,0,0,0,0,2.1093,2.1103,2.1206,2.1195,2.1199,2.1206,2.1216,2.1254,2.1298,2.1259,2.1261,2.1271,2.1338,2.1357,2.1363,2.1422,2.1391,2.1394,2.1397,2.1398,2.1514,2.1515,0,0,0,0,0,0,2.1083,2.1099,2.1203,2.1209,2.1147,2.1209,2.122,2.1243,2.1298,2.1306,2.1272,2.1272,2.135,2.1358,2.1366,2.1411,2.1395,2.1399,2.1401,2.1513,2.1514,2.1515,0,0,0,0,0,0,2.108,2.1092,2.12,2.1155,2.1169,2.1212,2.1238,2.1245,2.1264,2.1307,2.1315,2.1283,2.135,2.136,2.1402,2.1415,2.14,2.1404,2.1512,2.1513,2.1514,2.1502,0,0,0,0,0,0,2.1076,2.1091,2.1105,2.1155,2.1171,2.1235,2.1239,2.1247,2.1271,2.1272,2.132,2.1327,2.1351,2.1396,2.1406,2.142,2.1407,2.1511,2.1513,2.1514,2.1501,2.1502,2.1503,0,0,0,0,0,2.1071,2.1096,2.1105,2.1118,2.1189,2.1236,2.1245,2.1273,2.1271,2.1286,2.1314,2.1325,2.1412,2.14,2.1411,2.1426,2.1511,2.1512,2.1514,2.1501,2.1502,2.1503,0,0,0,0,0,0,2.1045,2.1103,2.1114,2.1156,2.1191,2.124,2.1259,2.1273,2.1307,2.1307,2.1339,2.135,2.139,2.1412,2.1398,2.1464,2.1462,2.1466,2.1448,2.1449,2.145,2.1444,2.141,0,0,0,0,0,2.1044,2.1078,2.1127,2.1159,2.1177,2.1215,2.1236,2.1255,2.1292,2.1306,2.1337,2.1372,2.1407,2.1429,2.1464,2.1505,2.1516,2.1521,2.1522,2.1522,2.1525,2.1551,2.1554,2.152,2.152,2.152,0,0,2.1043,2.1079,2.1098,2.1155,2.1184,2.1218,2.1227,2.1262,2.1287,2.1311,2.1353,2.1378,2.1418,2.146,2.148,2.148,2.1537,2.1524,2.1525,2.1527,2.1553,2.1556,2.1559,2.1522,2.1521,2.1521,0,0,2.1058,2.1088,2.112,2.115,2.1195,2.122,2.1228,2.1276,2.1294,2.1337,2.1357,2.1387,2.1446,2.1476,2.1498,2.1527,2.1539,2.1538,2.1543,2.1567,2.157,2.1572,2.1584,2.1588,2.154,2.154,2.154,0,2.105,2.1103,2.1134,2.1169,2.1194,2.122,2.1252,2.1279,2.1332,2.1349,2.1349,2.1426,2.1455,2.1505,2.1513,2.153,2.154,2.1532,2.1567,2.157,2.1572,2.1584,2.1588,2.154,2.154,2.154,2.154,0,2.1092,2.1128,2.1148,2.1202,2.1229,2.1263,2.1299,2.1323,2.134,2.1366,2.1411,2.1447,2.149,2.1504,2.1519,2.1557,2.1556,2.1561,2.1559,2.1575,2.1586,2.1591,2.1539,2.154,2.154,2.154,0,0,2.1091,2.1164,2.117,2.1196,2.1249,2.1277,2.1313,2.1357,2.1378,2.1414,2.1445,2.1496,2.1502,2.1528,2.1547,2.1569,2.1592,2.1571,2.1573,2.1575,2.1637,2.1634,2.1638,2.16,2.1601,2.1602,2.1634,0,2.1114,2.1179,2.1209,2.1261,2.1296,2.1322,2.1353,2.1389,2.1414,2.1447,2.1475,2.1512,2.1516,2.1532,2.1554,2.1584,2.1605,2.1582,2.163,2.1631,2.1619,2.1644,2.164,2.1668,2.1639,2.164,2.164,0,2.1148,2.1187,2.1243,2.1295,2.131,2.1338,2.1382,2.1414,2.1455,2.1473,2.1503,2.1522,2.1561,2.1557,2.1611,2.1595,2.1616,2.1634,2.1636,2.1642,2.1637,2.1651,2.1678,2.1682,2.1647,2.1647,2.1646,0,2.1144,2.121,2.1253,2.1274,2.1334,2.1353,2.1379,2.142,2.1446,2.1485,2.1502,2.1544,2.1567,2.1599,2.1629,2.1624,2.1681,2.1679,2.1697,2.1696,2.1707,2.1706,2.1739,2.172,2.172,2.172,2.172,0,2.1166,2.1199,2.1252,2.1278,2.1317,2.1352,2.1389,2.1417,2.1454,2.1486,2.151,2.154,2.1578,2.1613,2.1637,2.1679,2.1689,2.1704,2.171,2.1702,2.17,2.1717,2.1716,2.1721,2.1721,2.172,2.172,0,2.1167,2.1203,2.1252,2.1307,2.1321,2.1347,2.1394,2.1421,2.1449,2.1489,2.1501,2.1544,2.1586,2.162,2.1675,2.1691,2.1736,2.1742,2.1722,2.1725,2.1741,2.174,2.1786,2.1794,2.1769,2.1769,2.1769,0,2.1179,2.1206,2.1264,2.1289,2.1315,2.1353,2.138,2.1416,2.1443,2.1495,2.1515,2.156,2.1597,2.1664,2.17,2.1742,2.175,2.1763,2.1756,2.1749,2.1752,2.175,2.1754,2.1764,2.1764,2.1764,2.1764,0,2.1197,2.1215,2.1253,2.13,2.1332,2.1369,2.1407,2.1426,2.1469,2.1498,2.1543,2.1572,2.163,2.1674,2.1721,2.1747,2.1763,2.1766,2.1773,2.1765,2.1753,2.1761,2.1725,2.1765,2.1765,2.1765,2.1765,2.1765,2.1205,2.1231,2.1277,2.132,2.1353,2.1389,2.1418,2.145,2.1489,2.1539,2.1558,2.1604,2.1647,2.1712,2.1739,2.1776,2.1777,2.1786,2.1788,2.179,2.179,2.1747,2.1784,2.1784,2.1784,2.1784,2.1784,0,2.1225,2.1257,2.1296,2.135,2.1385,2.1399,2.1442,2.147,2.1511,2.155,2.1588,2.164,2.1684,2.1725,2.177,2.1792,2.1801,2.1803,2.1802,2.1808,2.1786,2.1776,2.1795,2.1795,2.1795,2.1795,2.1795,2.1795,2.1239,2.1285,2.1309,2.1371,2.1403,2.145,2.1474,2.1507,2.1539,2.1597,2.1635,2.1661,2.1702,2.1751,2.1792,2.1803,2.1819,2.182,2.1832,2.1811,2.1809,2.1808,2.1799,2.1823,2.1823,2.1852,2.1852,2.1853]}]]